This demonstration page uses our WeatherBlox Daily Observations layout. Learn more.

Left ArrowRight Arrow

39.01783, -85.05884

Hourly Observations for May 15, 2022

Temp ( °F °C ) Dew Point ( °F °C ) Humidity (%) Winds ( mph kmh ) Pressure ( in mb ) Visibility ( mi km ) Precip ( " mm )
12:52 am 00:52 Mostly Cloudy 61 16.1 61 16.1 100 100 W 5 7 29.92 1013 8 13 0.00 0.00
1:52 am 01:52 Partly Cloudy 59 15 59 15 100 100 Calm 29.91 1013 10 16 0.00 0.00
2:52 am 02:52 Mostly Clear 59 15 59 15 100 100 Calm 29.90 1013 10 16 0.00 0.00
3:52 am 03:52 Clear with Patchy Fog 58 14.4 58 14.4 100 100 Calm 29.90 1013 5 8 0.00 0.00
4:52 am 04:52 Cloudy 60 15.6 60 15.6 100 100 Calm 29.89 1012 8 13 0.00 0.00
5:52 am 05:52 Partly Cloudy 60 15.6 60 15.6 100 100 Calm 29.90 1013 7 11 0.00 0.00
6:52 am 06:52 Mostly Cloudy with Mist and Fog 58 14.4 58 14.4 100 100 Calm 29.92 1013 4 6 0.00 0.00
7:52 am 07:52 Mostly Cloudy with Mist and Fog 63 17.2 62 16.7 97 97 Calm 29.93 1014 6 10 0.00 0.00
8:52 am 08:52 Mostly Cloudy 66 18.9 63 17.2 90 90 W 5 7 29.95 1014 8 13 0.00 0.00
9:52 am 09:52 Partly Cloudy 70 21.1 65 18.3 84 84 Calm 29.95 1014 10 16 0.00 0.00
10:52 am 10:52 Partly Cloudy 74 23.3 63 17.2 69 69 Calm 29.96 1014 10 16 0.00 0.00
11:52 am 11:52 Partly Cloudy 77 25 63 17.2 62 62 E 3 6 29.93 1014 10 16 0.00 0.00
12:52 pm 12:52 Mostly Sunny 79 26.1 59 15 50 50 VRB 3 6 29.91 1013 10 16 0.00 0.00
1:52 pm 13:52 Mostly Sunny 81 27.2 59 15 47 47 Calm 29.89 1012 10 16 0.00 0.00
2:52 pm 14:52 Mostly Sunny 82 27.8 56 13.3 41 41 Calm 29.88 1012 10 16 0.00 0.00
3:52 pm 15:52 Partly Cloudy 83 28.3 57 13.9 41 41 Calm 29.86 1011 10 16 0.00 0.00
4:52 pm 16:52 Mostly Cloudy 83 28.3 50 10 32 32 WSW 5 7 29.83 1010 10 16 0.00 0.00
5:52 pm 17:52 Mostly Cloudy 84 28.9 52 11.1 33 33 Calm 29.80 1009 10 16 0.00 0.00
6:52 pm 18:52 Mostly Cloudy 81 27.2 63 17.2 54 54 SW 3 6 29.78 1009 10 16 0.00 0.00
7:52 pm 19:52 Mostly Cloudy 78 25.6 54 12.2 43 43 SSW 5 7 29.79 1009 10 16 0.00 0.00
8:52 pm 20:52 Cloudy 75 23.9 53 11.7 46 46 S 6 9 29.78 1008 10 16 0.00 0.00
9:52 pm 21:52 Cloudy 74 23.3 54 12.2 50 50 SSW 6 9 29.78 1009 10 16 0.00 0.00
10:52 pm 22:52 Cloudy 72 22.2 57 13.9 59 59 SSW 7 11 29.76 1008 10 16 0.00 0.00
11:52 pm 23:52 Mostly Cloudy 72 22.2 58 14.4 61 61 SSW 6 9 29.75 1008 10 16 0.00 0.00

Powered by AerisWeather